When you browse on this site, cookies collect data to enhance your experience and personalize the content and advertising you see.
Visit our Privacy Policy to learn more. By continuing to use the site, you agree to this use of cookies and data.
  • In Spain
  • List of Countries
  • For 7 days
  • Water Temperature
  • Satellite Maps
  • Weather Map
  • Weather Widgets
  • user-avatar
    Login

    Hourly Weather Glinki

    Today, 16 November, Friday

    Time Temperature Precipitation Wind Pressure Humidity
    00:00 -5°C° 0 mm 3 mps 761 mmHg 39%
    01:00 -5°C° 0 mm 3 mps 761 mmHg 37%
    02:00 -5°C° 0 mm 3 mps 762 mmHg 37%
    03:00 -5°C° 0 mm 3 mps 762 mmHg 35%
    04:00 -5°C° 0 mm 3 mps 762 mmHg 34%
    05:00 -5°C° 0 mm 3 mps 762 mmHg 33%
    06:00 -5°C° 0 mm 3 mps 762 mmHg 32%
    07:00 -5°C° 0 mm 4 mps 762 mmHg 31%
    08:00 -5°C° 0 mm 4 mps 763 mmHg 30%
    09:00 -4°C° 0 mm 4 mps 763 mmHg 28%
    10:00 -3°C° 0 mm 4 mps 763 mmHg 26%
    11:00 -2°C° 0 mm 4 mps 763 mmHg 24%
    12:00 -1°C° 0 mm 4 mps 763 mmHg 24%
    13:00 -1°C° 0 mm 4 mps 763 mmHg 24%
    14:00 -1°C° 0 mm 4 mps 763 mmHg 24%
    15:00 -2°C° 0 mm 4 mps 763 mmHg 26%
    16:00 -3°C° 0 mm 4 mps 763 mmHg 27%
    17:00 -4°C° 0 mm 3 mps 763 mmHg 29%
    18:00 -4°C° 0 mm 3 mps 763 mmHg 28%
    19:00 -4°C° 0 mm 3 mps 764 mmHg 27%
    20:00 -4°C° 0 mm 3 mps 764 mmHg 26%
    21:00 -4°C° 0 mm 3 mps 764 mmHg 25%
    22:00 -4°C° 0 mm 3 mps 764 mmHg 25%
    23:00 -5°C° 0 mm 3 mps 764 mmHg 24%

    Tomorrow, 17 November, Saturday

    Time Temperature Precipitation Wind Pressure Humidity
    00:00 -5°C° 0 mm 3 mps 763 mmHg 24%
    01:00 -5°C° 0 mm 3 mps 763 mmHg 24%
    02:00 -4°C° 0 mm 2 mps 763 mmHg 24%
    03:00 -4°C° 0 mm 2 mps 763 mmHg 24%
    04:00 -4°C° 0 mm 2 mps 763 mmHg 23%
    05:00 -4°C° 0 mm 2 mps 763 mmHg 23%
    06:00 -4°C° 0 mm 2 mps 762 mmHg 23%
    07:00 -4°C° 0 mm 2 mps 762 mmHg 22%
    08:00 -4°C° 0 mm 2 mps 762 mmHg 21%
    09:00 -1°C° 0 mm 1 mps 762 mmHg 20%
    10:00 +1°C° 0 mm 1 mps 762 mmHg 18%
    11:00 +2°C° 0 mm 1 mps 762 mmHg 16%
    12:00 +2°C° 0 mm 1 mps 761 mmHg 17%
    13:00 +2°C° 0 mm 1 mps 761 mmHg 19%
    14:00 +2°C° 0 mm 1 mps 760 mmHg 20%
    15:00 +1°C° 0 mm 1 mps 759 mmHg 20%
    16:00 0°C° 0 mm 1 mps 759 mmHg 21%
    17:00 0°C° 0 mm 1 mps 758 mmHg 21%
    18:00 -1°C° 0 mm 1 mps 758 mmHg 22%
    19:00 -1°C° 0 mm 1 mps 757 mmHg 22%
    20:00 -3°C° 0 mm 2 mps 757 mmHg 23%
    21:00 -3°C° 0 mm 2 mps 756 mmHg 24%
    22:00 -3°C° 0 mm 2 mps 755 mmHg 25%
    23:00 -4°C° 0 mm 3 mps 755 mmHg 26%

    Day after tomorrow, 18 November, Sunday

    Time Temperature Precipitation Wind Pressure Humidity
    00:00 -4°C° 0 mm 3 mps 754 mmHg 28%
    01:00 -4°C° 0 mm 3 mps 753 mmHg 29%
    02:00 -4°C° 0 mm 4 mps 752 mmHg 30%
    03:00 -4°C° 0 mm 4 mps 751 mmHg 33%
    04:00 -4°C° 0 mm 4 mps 751 mmHg 35%
    05:00 -4°C° 0 mm 4 mps 750 mmHg 38%
    06:00 -4°C° 0 mm 4 mps 749 mmHg 43%
    07:00 -4°C° 0 mm 4 mps 749 mmHg 48%
    08:00 -4°C° 0 mm 4 mps 748 mmHg 54%
    09:00 -4°C° 0.1 mm 4 mps 748 mmHg 60%
    10:00 -4°C° 0.1 mm 4 mps 748 mmHg 67%
    11:00 -3°C° 0.1 mm 4 mps 747 mmHg 73%
    12:00 -2°C° 0 mm 3 mps 747 mmHg 75%
    13:00 -2°C° 0 mm 3 mps 747 mmHg 77%
    14:00 -2°C° 0 mm 3 mps 746 mmHg 79%
    15:00 -2°C° 0 mm 3 mps 746 mmHg 81%
    16:00 -2°C° 0 mm 2 mps 746 mmHg 84%
    17:00 -2°C° 0 mm 2 mps 746 mmHg 86%
    18:00 -2°C° 0 mm 2 mps 746 mmHg 88%
    19:00 -2°C° 0 mm 2 mps 746 mmHg 89%
    20:00 0°C° 0 mm 1 mps 746 mmHg 91%
    21:00 -1°C° 0 mm 1 mps 746 mmHg 92%
    22:00 -1°C° 0 mm 1 mps 746 mmHg 93%
    23:00 -1°C° 0 mm 1 mps 747 mmHg 94%

    19 November, Monday

    Time Temperature Precipitation Wind Pressure Humidity
    00:00 -1°C° 0.1 mm 1 mps 747 mmHg 93%
    01:00 -1°C° 0.1 mm 1 mps 747 mmHg 93%
    02:00 -1°C° 0.1 mm 1 mps 747 mmHg 93%
    03:00 -1°C° 0.1 mm 1 mps 747 mmHg 92%
    04:00 -1°C° 0.1 mm 1 mps 748 mmHg 92%
    05:00 -1°C° 0.1 mm 1 mps 748 mmHg 91%
    06:00 -1°C° 0.1 mm 1 mps 748 mmHg 89%
    07:00 -3°C° 0.1 mm 2 mps 748 mmHg 87%
    08:00 -3°C° 0.1 mm 2 mps 749 mmHg 85%
    09:00 -2°C° 0 mm 2 mps 749 mmHg 78%
    10:00 -2°C° 0 mm 3 mps 750 mmHg 71%
    11:00 -1°C° 0 mm 3 mps 750 mmHg 64%
    12:00 -1°C° 0 mm 3 mps 750 mmHg 62%
    13:00 -1°C° 0 mm 3 mps 751 mmHg 60%
    14:00 -1°C° 0 mm 2 mps 751 mmHg 58%
    15:00 -2°C° 0 mm 3 mps 751 mmHg 60%
    16:00 -2°C° 0 mm 3 mps 751 mmHg 62%
    17:00 -4°C° 0 mm 3 mps 752 mmHg 65%
    18:00 -4°C° 0 mm 3 mps 752 mmHg 64%
    19:00 -4°C° 0 mm 3 mps 752 mmHg 63%
    20:00 -2°C° 0 mm 3 mps 753 mmHg 63%
    21:00 -3°C° 0 mm 4 mps 753 mmHg 65%
    22:00 -3°C° 0 mm 4 mps 753 mmHg 66%
    23:00 -3°C° 0 mm 4 mps 753 mmHg 68%

    20 November, Tuesday

    Time Temperature Precipitation Wind Pressure Humidity
    00:00 -3°C° 0 mm 4 mps 753 mmHg 68%
    01:00 -3°C° 0 mm 4 mps 753 mmHg 68%
    02:00 -3°C° 0 mm 4 mps 754 mmHg 68%
    03:00 -3°C° 0 mm 4 mps 754 mmHg 67%
    04:00 -3°C° 0 mm 4 mps 753 mmHg 66%
    05:00 -3°C° 0 mm 4 mps 753 mmHg 65%
    06:00 -3°C° 0 mm 4 mps 753 mmHg 63%
    07:00 -4°C° 0 mm 5 mps 753 mmHg 61%
    08:00 -4°C° 0 mm 5 mps 753 mmHg 59%
    09:00 -4°C° 0 mm 5 mps 753 mmHg 57%
    10:00 -2°C° 0 mm 5 mps 753 mmHg 56%
    11:00 -2°C° 0 mm 5 mps 753 mmHg 55%
    12:00 -2°C° 0 mm 5 mps 753 mmHg 61%
    13:00 -2°C° 0 mm 5 mps 752 mmHg 67%
    14:00 -2°C° 0 mm 5 mps 752 mmHg 74%
    15:00 -2°C° 0.1 mm 5 mps 752 mmHg 77%
    16:00 -4°C° 0.1 mm 5 mps 752 mmHg 80%
    17:00 -4°C° 0.1 mm 5 mps 752 mmHg 83%
    18:00 -4°C° 0.2 mm 5 mps 751 mmHg 85%
    19:00 -3°C° 0.2 mm 4 mps 751 mmHg 86%
    20:00 -3°C° 0.2 mm 4 mps 751 mmHg 88%
    21:00 -3°C° 0.1 mm 4 mps 751 mmHg 89%
    22:00 -2°C° 0.1 mm 3 mps 751 mmHg 90%
    23:00 -4°C° 0.1 mm 3 mps 750 mmHg 91%

    21 November, Wednesday

    Time Temperature Precipitation Wind Pressure Humidity
    00:00 -4°C° 0 mm 3 mps 750 mmHg 91%
    01:00 -4°C° 0 mm 3 mps 750 mmHg 91%
    02:00 -4°C° 0 mm 3 mps 750 mmHg 91%
    03:00 -3°C° 0 mm 2 mps 749 mmHg 92%
    04:00 -3°C° 0 mm 2 mps 749 mmHg 92%
    05:00 -3°C° 0 mm 2 mps 749 mmHg 92%
    06:00 -3°C° 0 mm 2 mps 749 mmHg 93%
    07:00 -3°C° 0 mm 2 mps 749 mmHg 94%
    08:00 -3°C° 0 mm 2 mps 749 mmHg 94%
    09:00 -4°C° 0 mm 3 mps 748 mmHg 92%
    10:00 -2°C° 0 mm 3 mps 748 mmHg 89%
    11:00 -3°C° 0 mm 4 mps 748 mmHg 86%
    12:00 -3°C° 0 mm 4 mps 748 mmHg 86%
    13:00 -2°C° 0 mm 4 mps 747 mmHg 86%
    14:00 -2°C° 0 mm 4 mps 747 mmHg 85%
    15:00 -3°C° 0 mm 4 mps 747 mmHg 87%
    16:00 -3°C° 0 mm 4 mps 746 mmHg 88%
    17:00 -3°C° 0 mm 4 mps 746 mmHg 90%
    18:00 -4°C° 0 mm 5 mps 746 mmHg 89%
    19:00 -4°C° 0 mm 5 mps 745 mmHg 89%
    20:00 -4°C° 0 mm 5 mps 745 mmHg 89%
    21:00 -4°C° 0 mm 5 mps 745 mmHg 89%
    22:00 -4°C° 0 mm 5 mps 745 mmHg 88%
    23:00 -4°C° 0 mm 6 mps 744 mmHg 88%
    Show more